EDT,Max TemperatureF,Mean TemperatureF,Min TemperatureF,Max Dew PointF,MeanDew PointF,Min DewpointF,Max Humidity, Mean Humidity, Min Humidity, Max Sea Level PressureIn, Mean Sea Level PressureIn, Min Sea Level PressureIn, Max VisibilityMiles, Mean VisibilityMiles, Min VisibilityMiles, Max Wind SpeedMPH, Mean Wind SpeedMPH, Max Gust SpeedMPH,PrecipitationIn, CloudCover, Events, WindDirDegrees
2012-4-1,71,65,59,61,57,54,94,75,53,29.91,29.84,29.76,10,10,7,13,7,,0.00,1,,68
2012-4-2,87,74,60,61,58,52,94,62,29,29.88,29.77,29.73,10,10,10,16,9,28,0.00,1,,279
2012-4-3,75,70,64,57,53,48,77,59,41,30.04,29.98,29.93,10,10,10,14,9,21,0.00,4,,108
2012-4-4,84,73,62,66,60,54,88,68,35,29.93,29.81,29.68,10,10,7,13,6,17,0.00,3,Rain-Thunderstorm,236
2012-4-5,84,74,64,64,60,57,88,68,42,29.73,29.70,29.65,10,10,5,18,8,26,0.01,2,Rain-Thunderstorm,239
2012-4-6,59,52,46,54,44,36,94,77,42,30.00,29.85,29.73,10,10,7,20,11,28,0.09,7,Rain,12
2012-4-7,69,53,37,41,34,27,93,60,21,30.27,30.19,30.09,10,10,10,13,2,20,0.00,0,,339
2012-4-8,78,61,44,54,43,34,93,59,20,30.21,30.11,30.01,10,10,10,15,6,22,0.00,0,,243
2012-4-9,73,63,53,52,42,25,88,53,16,30.11,30.02,29.96,10,10,10,16,8,23,0.00,0,,249
2012-4-10,78,66,53,52,44,28,94,54,17,30.05,29.96,29.88,10,10,7,14,7,21,0.00,0,,248
2012-4-11,68,57,46,46,32,19,62,38,16,30.12,29.97,29.88,10,10,10,16,9,23,0.00,0,,316
2012-4-12,64,52,39,37,29,21,81,49,20,30.24,30.19,30.13,10,10,10,13,8,18,0.00,0,,5
2012-4-13,68,52,35,45,35,30,93,59,24,30.30,30.24,30.18,10,10,10,14,3,17,0.00,0,,123
2012-4-14,71,56,41,55,46,37,93,66,35,30.37,30.31,30.26,10,10,10,14,3,17,0.00,4,,147
2012-4-15,78,66,53,59,54,52,94,67,41,30.30,30.26,30.23,10,10,3,17,6,22,0.00,1,,196
2012-4-16,80,65,50,61,54,46,94,68,30,30.28,30.22,30.18,10,8,0,16,4,23,0.00,1,Fog,212
2012-4-17,84,70,57,63,57,52,100,69,37,30.23,30.16,30.09,10,8,0,15,6,17,0.00,1,Fog,222
2012-4-18,78,66,53,63,57,52,94,71,41,30.13,30.08,30.01,10,9,2,15,3,18,0.05,3,Rain,175
2012-4-19,68,65,60,63,61,59,94,91,78,30.07,30.02,29.99,10,8,2,8,3,,0.05,8,Rain,8
2012-4-20,73,66,57,61,59,55,94,82,61,30.01,29.95,29.88,10,8,1,9,5,,0.00,5,,47
2012-4-21,77,66,55,68,62,54,100,88,69,29.89,29.81,29.72,10,6,0,14,3,20,0.23,6,Fog-Rain-Thunderstorm,124
2012-4-22,71,63,53,64,60,50,94,84,64,29.71,29.53,29.41,10,10,4,16,7,21,0.23,7,Rain,357
2012-4-23,59,50,42,48,38,30,93,62,34,29.81,29.66,29.59,10,10,10,18,10,28,0.00,6,,286
2012-4-24,68,52,37,41,33,23,93,53,19,29.89,29.83,29.79,10,10,10,22,7,31,0.00,1,,261
2012-4-25,78,60,42,55,46,37,81,59,30,30.03,29.95,29.89,10,10,10,14,5,25,0.00,4,,220
2012-4-26,84,74,64,61,54,45,83,56,26,29.97,29.93,29.88,10,10,10,22,12,32,0.00,0,Thunderstorm,223
2012-4-27,87,76,64,63,59,55,83,60,35,30.06,30.00,29.93,10,10,10,14,8,20,0.00,2,Rain-Thunderstorm,224
2012-4-28,84,73,62,66,60,54,94,67,35,30.12,30.09,30.05,10,10,4,14,5,17,0.00,1,,170
2012-4-29,86,72,59,66,62,57,94,75,40,30.18,30.14,30.12,10,8,0,14,3,18,0.00,2,Fog,158
2012-4-30,77,70,62,66,64,59,94,84,61,30.25,30.20,30.16,10,8,0,14,3,17,0.00,5,Fog,103